DW7076 Floda SE current weather conditions

sailwx.info

Wind from 265 at 5 knots gusting 13

Air temperature 13.3° C
Dewpoint 8.0° C

Last reported at 2016-May-03 13:46 UTC.
Time now 2016-May-03 14:28 UTC

Location: N 57°49' E 012°21'.
View on Google Maps.

See reports from other nearby stations

  
Tides and Currents Weather Stations Pressure Air Temp Water Temp Dewpoint Dewpoint Depression Visibility Wind Speed Wind Dir Waves Ship Positions
date/time (UTC)wind fromknots sea level pressurealtimeterstation pressurevisibilityair tempwater tempwave heightnotes
2016-May-03 13:46 265 5 gusting 13 13.3
2016-May-03 13:36 273 2 gusting 11 13.3
2016-May-03 13:26 264 1 gusting 10 13.9
2016-May-03 13:16 260 2 gusting 11 14.4
2016-May-03 13:06 248 3 gusting 10 15.0
2016-May-03 12:56 274 2 gusting 10 15.6
2016-May-03 12:46 261 3 gusting 12 15.6
2016-May-03 12:36 289 2 gusting 8 16.1
2016-May-03 12:26 342 4 gusting 8 16.1
2016-May-03 12:16 208 4 gusting 12 16.1
2016-May-03 12:06 213 6 gusting 13 16.7
2016-May-03 11:56 201 5 gusting 11 16.7
2016-May-03 11:46 148 6 gusting 13 17.2
2016-May-03 11:26 200 5 gusting 11 16.7
2016-May-03 11:16 181 3 gusting 11 16.7
2016-May-03 11:06 225 5 gusting 8 16.7
2016-May-03 10:56 180 3 gusting 7 17.2
2016-May-03 10:46 143 1 gusting 10 16.7
2016-May-03 10:36 182 2 gusting 12 16.7
2016-May-03 10:26 177 6 gusting 13 17.2
2016-May-03 10:16 180 3 gusting 10 16.7
2016-May-03 10:06 164 4 gusting 11 17.2
2016-May-03 09:56 174 1 gusting 10 16.7
2016-May-03 09:46 141 6 gusting 12 16.1
2016-May-03 09:36 163 3 gusting 11 16.1
2016-May-03 09:26 167 4 gusting 8 15.6
2016-May-03 09:06 133 1 gusting 10 15.0
2016-May-03 08:56 136 4 gusting 10 14.4
2016-May-03 08:46 172 4 gusting 7 14.4
2016-May-03 08:36 103 3 gusting 10 14.4
2016-May-03 08:26 184 4 gusting 7 13.9
2016-May-03 08:16 154 1 gusting 10 12.8
2016-May-03 08:06 120 3 gusting 11 13.3
2016-May-03 07:46 142 1 gusting 6 12.2
2016-May-03 07:26 171 2 gusting 8 12.2
2016-May-03 07:16 177 1 gusting 8 12.8
2016-May-03 07:06 182 1 gusting 7 13.3
2016-May-03 06:46 194 2 gusting 7 11.7
2016-May-03 06:36 174 3 gusting 6 11.1
2016-May-03 06:26 119 1 gusting 8 10.6
2016-May-03 06:16 175 4 gusting 10 10.6
2016-May-03 06:06 136 0 gusting 5 10.0
2016-May-03 05:46 178 1 gusting 5 9.4
2016-May-03 05:26 133 0 gusting 2 8.3
2016-May-03 05:16 161 0 gusting 4 8.3
2016-May-03 05:06 144 8.3
2016-May-03 04:56 200 0 gusting 2 7.8
2016-May-03 04:46 151 1 gusting 6 7.8
2016-May-03 04:16 196 0 gusting 2 7.2
2016-May-03 04:06 211 7.2
2016-May-03 03:56 211 7.2
2016-May-03 03:46 211 0 gusting 1 7.2
2016-May-03 03:36 211 7.8
2016-May-03 03:26 211 7.8
2016-May-03 03:16 211 0 gusting 1 7.8
2016-May-03 02:46 211 8.3
2016-May-03 02:36 211 8.3
2016-May-03 02:26 211 8.9
2016-May-03 02:16 211 8.9
2016-May-03 02:06 211 8.9
2016-May-03 01:56 211 9.4
2016-May-03 01:46 211 9.4
2016-May-03 01:36 211 9.4
2016-May-03 01:26 211 9.4
2016-May-03 00:56 211 10.0
2016-May-03 00:46 213 0 gusting 2 10.0
2016-May-03 00:36 232 0 gusting 2 10.0
2016-May-03 00:26 194 10.0
2016-May-03 00:16 219 10.0
2016-May-03 00:06 181 0 gusting 2 10.0
2016-May-02 23:56 172 10.0
2016-May-02 23:46 172 0 gusting 2 10.0
2016-May-02 23:36 187 10.0
2016-May-02 23:26 187 0 gusting 5 10.0
2016-May-02 23:16 171 2 gusting 5 10.6
2016-May-02 23:06 190 0 gusting 4 10.6
2016-May-02 22:56 197 10.6
2016-May-02 22:46 155 10.6
2016-May-02 22:36 155 10.6
2016-May-02 22:26 161 0 gusting 5 10.6
2016-May-02 22:16 179 1 gusting 5 10.6
2016-May-02 22:06 171 1 gusting 4 10.6
2016-May-02 21:46 177 0 gusting 4 10.6
2016-May-02 21:36 164 0 gusting 4 10.6
2016-May-02 21:26 147 0 gusting 2 10.6
2016-May-02 21:16 182 1 gusting 4 10.6
2016-May-02 21:06 186 0 gusting 2 10.0
2016-May-02 20:26 164 10.0
2016-May-02 20:16 164 10.0
2016-May-02 20:06 164 10.0
2016-May-02 19:56 168 10.0
2016-May-02 19:46 169 10.6
2016-May-02 19:36 169 10.6
2016-May-02 19:26 169 11.1
2016-May-02 19:16 169 11.1
2016-May-02 19:06 169 11.7
2016-May-02 18:56 169 11.7
2016-May-02 18:46 169 11.7
2016-May-02 18:36 169 12.2
2016-May-02 18:26 169 12.2
2016-May-02 18:16 168 12.2
2016-May-02 18:06 153 0 gusting 2 12.2
2016-May-02 17:56 193 2 gusting 6 12.8
2016-May-02 17:46 147 0 gusting 6 12.8
2016-May-02 17:36 171 2 gusting 8 13.3
2016-May-02 17:26 175 0 gusting 6 13.3
2016-May-02 17:16 156 1 gusting 2 13.9
2016-May-02 17:06 155 1 gusting 5 13.9
2016-May-02 16:56 163 1 gusting 6 14.4
2016-May-02 16:46 161 4 gusting 11 14.4
2016-May-02 16:36 153 1 gusting 8 14.4
2016-May-02 16:26 230 4 gusting 7 14.4
2016-May-02 16:06 240 2 gusting 7 15.0
2016-May-02 15:56 224 2 gusting 10 15.6
2016-May-02 15:36 178 4 gusting 10 15.6
2016-May-02 15:26 183 4 gusting 10 16.1
2016-May-02 15:16 196 2 gusting 8 15.6
2016-May-02 15:06 213 5 gusting 10 15.6
2016-May-02 14:56 180 2 gusting 11 16.1
2016-May-02 14:46 220 3 gusting 10 16.1
2016-May-02 14:26 162 4 gusting 10 15.6
2016-May-02 14:16 145 1 gusting 10 15.6
2016-May-02 13:56 243 2 gusting 7 16.1
2016-May-02 13:46 160 3 gusting 10 16.1
2016-May-02 13:36 237 5 gusting 17 16.1
2016-May-02 13:26 156 2 gusting 8 16.7
2016-May-02 13:16 144 2 gusting 11 16.1
2016-May-02 13:06 218 2 gusting 8 16.7
2016-May-02 12:56 194 2 gusting 7 16.1
2016-May-02 12:46 196 4 gusting 13 15.6
2016-May-02 12:36 228 4 gusting 11 16.1
2016-May-02 12:26 184 3 gusting 10 16.1
2016-May-02 12:16 260 6 gusting 13 16.1
2016-May-02 11:56 184 4 gusting 8 16.1
2016-May-02 11:46 233 4 gusting 8 15.0
2016-May-02 11:16 121 2 gusting 8 16.7
2016-May-02 11:06 190 3 gusting 6 15.6
2016-May-02 10:56 214 2 gusting 6 15.0
2016-May-02 10:46 138 2 gusting 13 15.0
2016-May-02 10:36 122 4 gusting 10 14.4
2016-May-02 10:26 152 4 gusting 10 15.0
2016-May-02 10:16 148 4 gusting 7 14.4
2016-May-02 10:06 199 2 gusting 6 13.9
2016-May-02 09:56 161 1 gusting 6 13.9
2016-May-02 09:46 175 3 gusting 7 13.3
2016-May-02 09:36 155 2 gusting 10 12.8
2016-May-02 09:26 312 2 gusting 8 12.2
2016-May-02 09:16 186 1 gusting 6 12.2
2016-May-02 09:06 179 1 gusting 6 12.8
2016-May-02 08:56 186 3 gusting 7 12.8
2016-May-02 08:46 116 4 gusting 11 11.7
2016-May-02 08:36 175 5 gusting 10 12.2
2016-May-02 08:26 152 4 gusting 10 11.1
2016-May-02 08:16 152 5 gusting 7 11.1
2016-May-02 08:06 197 2 gusting 10 10.6
2016-May-02 07:56 120 1 gusting 11 10.6
2016-May-02 07:46 194 4 gusting 10 10.0
2016-May-02 07:36 202 4 gusting 10 10.0
2016-May-02 07:26 204 4 gusting 8 9.4
2016-May-02 07:16 187 1 gusting 6 9.4
2016-May-02 07:06 215 3 gusting 8 9.4
2016-May-02 06:56 155 0 gusting 5 8.9
2016-May-02 06:46 121 7.8
2016-May-02 06:36 124 7.2
2016-May-02 06:26 270 5.6
2016-May-02 06:16 270 4.4
2016-May-02 06:06 270 4.4
2016-May-02 05:56 270 3.9
2016-May-02 05:46 270 3.9
2016-May-02 05:36 270 3.3
2016-May-02 05:26 270 3.3
2016-May-02 05:16 270 3.3
2016-May-02 05:06 270 1.7
2016-May-02 04:56 270 1.7
2016-May-02 04:46 270 1.7
2016-May-02 04:36 270 1.7
2016-May-02 04:26 270 1.7
2016-May-02 04:16 270 1.7
2016-May-02 04:06 270 1.7
2016-May-02 03:56 270 1.7
2016-May-02 03:46 270 1.7
2016-May-02 03:36 270 1.7
2016-May-02 03:26 270 1.7
2016-May-02 03:16 270 1.7
2016-May-02 03:06 270 1.7
2016-May-02 02:56 270 1.7
2016-May-02 02:46 270 1.7
2016-May-02 02:36 270 1.7
2016-May-02 02:26 270 1.7
2016-May-02 02:16 270 1.7
2016-May-02 02:06 270 1.7
2016-May-02 01:56 270 1.7
2016-May-02 01:46 270 1.7
2016-May-02 01:36 270 1.7
2016-May-02 01:26 270 1.7
2016-May-02 01:16 270 1.7
2016-May-02 01:06 270 1.7
2016-May-02 00:56 270 1.7
2016-May-02 00:46 270 1.7
2016-May-02 00:36 270 2.2
2016-May-02 00:26 270 2.2
2016-May-02 00:16 270 2.2
2016-May-02 00:06 270 2.2
2016-May-01 23:56 270 2.8
2016-May-01 23:46 270 2.8
2016-May-01 23:36 270 2.8
2016-May-01 23:26 270 2.8
2016-May-01 23:16 270 3.3
2016-May-01 23:06 270 3.3
2016-May-01 22:56 270 3.9
2016-May-01 22:46 270 3.9
2016-May-01 22:36 270 3.9
2016-May-01 22:26 270 4.4
2016-May-01 22:16 270 4.4
2016-May-01 22:06 270 5.0
2016-May-01 21:56 270 5.0
2016-May-01 21:46 270 5.0
2016-May-01 21:36 270 5.0
2016-May-01 21:26 270 5.0
2016-May-01 21:16 270 5.6
2016-May-01 21:06 270 5.6
2016-May-01 20:56 270 5.6
2016-May-01 20:46 270 5.6
2016-May-01 20:36 270 6.1
2016-May-01 20:26 270 6.1
2016-May-01 20:16 270 6.1
2016-May-01 20:06 270 6.1
2016-May-01 19:56 270 6.7
2016-May-01 19:46 270 6.7
2016-May-01 19:36 270 7.2
2016-May-01 19:26 270 7.2
2016-May-01 19:16 270 0 gusting 0 7.8
2016-May-01 19:06 270 0 gusting 1 7.8
2016-May-01 18:56 270 0 gusting 1 8.3
2016-May-01 18:46 270 8.3
2016-May-01 18:36 270 8.9
2016-May-01 18:26 271 8.9
2016-May-01 18:16 305 0 gusting 2 9.4
2016-May-01 18:06 317 1 gusting 6 9.4
2016-May-01 17:56 313 2 gusting 4 10.0
2016-May-01 17:46 278 2 gusting 6 10.0
2016-May-01 17:36 305 0 gusting 2 10.0
2016-May-01 17:26 306 0 gusting 6 10.0
2016-May-01 17:16 261 0 gusting 4 10.6
2016-May-01 17:06 294 2 gusting 6 10.6
2016-May-01 16:56 240 4 gusting 6 11.1
2016-May-01 16:46 283 0 gusting 6 11.1
2016-May-01 16:36 313 4 gusting 6 11.7
2016-May-01 16:26 261 4 gusting 8 11.7
2016-May-01 16:16 328 1 gusting 6 11.7
2016-May-01 16:06 300 1 gusting 5 12.2
2016-May-01 15:56 245 0 gusting 4 12.2
2016-May-01 15:46 292 0 gusting 8 12.8
2016-May-01 15:36 327 2 gusting 8 12.8
2016-May-01 15:26 337 1 gusting 10 12.8
2016-May-01 15:16 273 3 gusting 8 12.8
2016-May-01 15:06 324 2 gusting 7 12.8
2016-May-01 14:56 281 5 gusting 10 12.8
2016-May-01 14:46 288 2 gusting 11 13.3
2016-May-01 14:36 189 1 gusting 6 13.3
2016-May-01 14:26 306 4 gusting 12 13.3
2016-May-01 14:16 320 1 gusting 6 13.3
2016-May-01 14:06 306 3 gusting 8 13.3